COSMOS 1867 COOLANT

Satellite information

Favourite Embed

Satellite Type and Status

DEBRISIN ORBIT

Key statistics

Satellite COSMOS 1867 COOLANT at a glance.

Uptime

13877

Days in orbit

Revolutions

≈ 14.3

Per day

Orbit

LEO

Low Earth Orbit

Inclination

65.0

Latest

Satellite identification and parameters

Extended collection of information and parameters for COSMOS 1867 COOLANT.

Object identification

Identified? True

Debris? False

Object name: COSMOS 1867 COOLANT

International designator: 1987-060F

Object number (NORAD): 39638

Object ID (CCSDS): 39638

Country: COMMONWEALTH OF INDEPENDENT STATES (CIS)

Current information (Y/N): Y

RCS size: SMALL

Orbital parameters

Period: 100.47 minutes

Inclination: 65.0087 deg

SMA: 7158.994 km

Apoapsis: 792.303 km

Periapsis: 769.414 km

RAAN: 269.4211 deg

Eccentricy: 0.0015986

Argument of periapsis: 254.476 deg

Mean anomaly: 105.456 deg

Mean motion: 14.33259392 rev/day

Mean motion (dot): 0.0000013 rev/day2

B* drag term: 0.000083681 1/REarth

Two-line elements (TLE)

Creation date: July 6, 2025, 4:10 a.m.

Reference frame: TEME

Reference center: EARTH

Epoch: July 5, 2025, 3:01 p.m. UTC

TLE line 0: 0 COSMOS 1867 COOLANT

TLE line 1: 1 39638U 87060F 25186.62591357 .00000130 00000-0 83681-4 0 9994

TLE line 2: 2 39638 65.0087 269.4211 0015986 254.4760 105.4560 14.33259392587809

Live tracking on map

Real-time ground track for satellite COSMOS 1867 COOLANT.

In-orbit conjunctions

A list of the most updated potential collisions computed for object COSMOS 1867 COOLANT.

Target Orbit TCA Probability of collision Miss distance Type
FENGYUN 1C DEB SSO 2025-05-18 19:00:30 0.0003558516 108.0 (m) DEBRIS
COSMOS 2251 DEB LEO 2025-05-10 08:34:53 0.000336473 99.0 (m) DEBRIS
CZ-6A DEB LEO 2024-11-25 17:02:12 0.000172146 569.0 (m) DEBRIS
CBERS 1 SSO 2024-11-25 06:46:42 0.0001466039 533.0 (m) PAYLOAD

Associated space launch

Nuclear-powered magnetospheric research satellite

COSMOS 1867 COOLANT was lifted into orbit during the mission ‘Tsiklon-2 | Plasma-A 2’, on board a Tsiklon-2 space rocket.

The launch took place on July 10, 1987, 3:35 p.m. from 90.

For more information about the launch, click the button.

Launch to space Tsiklon-2 | Plasma-A 2
Tsiklon-2 | Plasma-A 2

Agency: N/A

Status: Launch Successful

Launch date: July 10, 1987, 3:35 p.m. UTC

Rocket: Tsiklon-2

Launch pad: 90

Location: Baikonur Cosmodrome, Republic of Kazakhstan

...

Latest news about this satellite

There are no fresh news available about this satellite. Check back as we update our databases every day.


Newsletter sign-up

Weekly statistics, charts and insights to help you stay on top of the space industry.